Check out our new BloomSky Weather System.

Active alerts

Houston, TX
  Details for Houston, TX Dense Fog Advisory


Thunder radar  blitzortung!


Rain radar more information rain snow radar


Visit our other weather sites:

Template documentation
and downloads

And another site



Weather Underground History page Text

Daily Summary for July 6, 2017 Units:  English    Metric   Both
« Previous Day
Next Day »
Daily Weekly Monthly Yearly Custom
  High: Low: Average:
Temperature: 96.6 °F 77.5 °F 86.8 °F
Dew Point: 79.7 °F 73.8 °F 76.5 °F
Humidity: 95 % 50 % 73 %
Wind Speed: 12.0 mph 0.0 mph 2.2 mph
Wind Gust: 15.0 mph - -
Wind:- - SSE
Pressure: 30.10 in 30.00 in -
Precipitation: 0.00 in    
Historical Graphs
 
 
Tabular Data for July 6, 2017
Time Temperature Dew Point Pressure Wind Wind Speed Wind Gust Humidity Rainfall Rate (Hourly)
00:03 82.4 °F 77.4 °F 30.06 in Calm   4.0 mph 85 % 0.00 in
00:08 82.2 °F 77.5 °F 30.07 in Calm   4.0 mph 86 % 0.00 in
00:13 82.0 °F 77.4 °F 30.07 in Calm   1.0 mph 86 % 0.00 in
00:18 82.0 °F 77.4 °F 30.06 in Calm   2.0 mph 86 % 0.00 in
00:23 81.9 °F 77.5 °F 30.07 in South 4.0 mph 4.0 mph 87 % 0.00 in
00:28 82.0 °F 77.7 °F 30.07 in SSE 2.0 mph 4.0 mph 87 % 0.00 in
00:33 82.0 °F 77.7 °F 30.06 in South 3.0 mph 5.0 mph 87 % 0.00 in
00:38 82.0 °F 77.4 °F 30.06 in SSE 1.0 mph 5.0 mph 86 % 0.00 in
00:43 82.0 °F 77.7 °F 30.06 in SSW 1.0 mph 5.0 mph 87 % 0.00 in
00:48 81.9 °F 77.5 °F 30.07 in Calm   3.0 mph 87 % 0.00 in
00:53 81.9 °F 77.5 °F 30.07 in SSE 1.0 mph 3.0 mph 87 % 0.00 in
00:58 81.7 °F 77.4 °F 30.07 in Calm   3.0 mph 87 % 0.00 in
01:03 81.7 °F 77.4 °F 30.07 in South 2.0 mph 2.0 mph 87 % 0.00 in
01:08 81.5 °F 77.5 °F 30.07 in South 1.0 mph 2.0 mph 88 % 0.00 in
01:13 81.5 °F 77.5 °F 30.07 in Calm   2.0 mph 88 % 0.00 in
01:18 81.3 °F 77.4 °F 30.07 in Calm   3.0 mph 88 % 0.00 in
01:23 81.3 °F 77.4 °F 30.07 in Calm   3.0 mph 88 % 0.00 in
01:28 81.1 °F 77.2 °F 30.07 in Calm   3.0 mph 88 % 0.00 in
01:33 81.0 °F 77.0 °F 30.07 in Calm   2.0 mph 88 % 0.00 in
01:38 81.0 °F 77.4 °F 30.07 in SE 1.0 mph 1.0 mph 89 % 0.00 in
01:43 81.0 °F 77.4 °F 30.07 in SSE 2.0 mph 2.0 mph 89 % 0.00 in
01:44 81.0 °F 77.4 °F 30.07 in South 1.0 mph 2.0 mph 89 % 0.00 in
01:49 81.1 °F 77.5 °F 30.07 in SE 2.0 mph 2.0 mph 89 % 0.00 in
01:54 81.1 °F 77.5 °F 30.06 in South 1.0 mph 3.0 mph 89 % 0.00 in
01:59 81.1 °F 77.5 °F 30.06 in SSE 3.0 mph 4.0 mph 89 % 0.00 in
02:04 81.1 °F 77.5 °F 30.06 in SSE 1.0 mph 4.0 mph 89 % 0.00 in
02:09 81.3 °F 77.7 °F 30.06 in ESE 2.0 mph 4.0 mph 89 % 0.00 in
02:14 81.3 °F 77.7 °F 30.06 in SSE 3.0 mph 4.0 mph 89 % 0.00 in
02:19 81.1 °F 77.5 °F 30.05 in SE 2.0 mph 4.0 mph 89 % 0.00 in
02:24 81.1 °F 77.5 °F 30.05 in SSE 2.0 mph 4.0 mph 89 % 0.00 in
02:29 81.1 °F 77.5 °F 30.05 in SE 1.0 mph 4.0 mph 89 % 0.00 in
02:34 81.1 °F 77.5 °F 30.05 in Calm   4.0 mph 89 % 0.00 in
02:39 81.0 °F 77.4 °F 30.05 in Calm   3.0 mph 89 % 0.00 in
02:44 81.0 °F 77.4 °F 30.05 in Calm   3.0 mph 89 % 0.00 in
02:49 80.8 °F 77.2 °F 30.05 in SSE 2.0 mph 3.0 mph 89 % 0.00 in
02:54 80.8 °F 77.2 °F 30.05 in SSW 1.0 mph 2.0 mph 89 % 0.00 in
02:59 80.6 °F 77.4 °F 30.05 in SSE 1.0 mph 2.0 mph 90 % 0.00 in
03:04 80.4 °F 77.2 °F 30.05 in Calm   2.0 mph 90 % 0.00 in
03:09 80.4 °F 77.2 °F 30.05 in Calm   2.0 mph 90 % 0.00 in
03:14 80.2 °F 77.0 °F 30.05 in Calm   2.0 mph 90 % 0.00 in
03:19 80.1 °F 76.8 °F 30.05 in Calm   2.0 mph 90 % 0.00 in
03:24 79.9 °F 77.0 °F 30.05 in Calm   1.0 mph 91 % 0.00 in
03:29 79.9 °F 77.0 °F 30.05 in Calm   1.0 mph 91 % 0.00 in
03:30 79.9 °F 77.0 °F 30.05 in Calm   1.0 mph 91 % 0.00 in
03:35 79.9 °F 77.0 °F 30.05 in Calm   1.0 mph 91 % 0.00 in
03:40 79.5 °F 76.6 °F 30.05 in Calm   1.0 mph 91 % 0.00 in
03:41 79.5 °F 76.6 °F 30.05 in Calm   1.0 mph 91 % 0.00 in
03:46 79.5 °F 76.6 °F 30.05 in Calm   1.0 mph 91 % 0.00 in
03:51 79.5 °F 76.6 °F 30.05 in Calm   1.0 mph 91 % 0.00 in
03:57 79.3 °F 76.5 °F 30.05 in Calm   1.0 mph 91 % 0.00 in
04:58 79.2 °F 77.0 °F 30.04 in Calm   3.0 mph 93 % 0.00 in
04:59 79.0 °F 76.5 °F 30.04 in Calm   3.0 mph 92 % 0.00 in
05:00 79.0 °F 76.5 °F 30.04 in Calm   1.0 mph 92 % 0.00 in
05:01 79.0 °F 76.5 °F 30.04 in Calm   1.0 mph 92 % 0.00 in
05:03 78.8 °F 76.3 °F 30.04 in Calm   1.0 mph 92 % 0.00 in
05:08 78.6 °F 76.5 °F 30.04 in Calm     93 % 0.00 in
05:14 78.6 °F 76.5 °F 30.04 in Calm     93 % 0.00 in
05:19 78.4 °F 76.3 °F 30.04 in Calm     93 % 0.00 in
05:24 78.4 °F 76.3 °F 30.05 in Calm     93 % 0.00 in
05:29 78.4 °F 76.3 °F 30.05 in Calm     93 % 0.00 in
05:34 78.4 °F 76.3 °F 30.05 in Calm   1.0 mph 93 % 0.00 in
05:39 78.4 °F 76.3 °F 30.05 in NNW 1.0 mph 1.0 mph 93 % 0.00 in
05:44 78.3 °F 76.1 °F 30.04 in Calm   1.0 mph 93 % 0.00 in
05:50 78.1 °F 75.9 °F 30.05 in Calm   1.0 mph 93 % 0.00 in
05:55 77.9 °F 75.7 °F 30.04 in Calm   1.0 mph 93 % 0.00 in
06:00 78.1 °F 75.9 °F 30.04 in Calm     93 % 0.00 in
06:05 78.1 °F 76.3 °F 30.04 in Calm   1.0 mph 94 % 0.00 in
06:10 78.1 °F 76.3 °F 30.04 in Calm   1.0 mph 94 % 0.00 in
06:15 77.9 °F 76.1 °F 30.04 in Calm   1.0 mph 94 % 0.00 in
06:20 78.1 °F 76.3 °F 30.05 in Calm   1.0 mph 94 % 0.00 in
06:25 77.9 °F 76.1 °F 30.05 in Calm     94 % 0.00 in
06:30 77.7 °F 75.9 °F 30.05 in Calm     94 % 0.00 in
06:35 77.7 °F 75.9 °F 30.05 in Calm     94 % 0.00 in
06:40 77.5 °F 75.7 °F 30.05 in Calm   1.0 mph 94 % 0.00 in
06:45 77.7 °F 76.1 °F 30.05 in Calm   1.0 mph 95 % 0.00 in
06:50 77.5 °F 75.7 °F 30.05 in Calm   1.0 mph 94 % 0.00 in
06:55 77.7 °F 76.1 °F 30.05 in East 1.0 mph 2.0 mph 95 % 0.00 in
07:00 78.1 °F 76.5 °F 30.05 in Calm   2.0 mph 95 % 0.00 in
07:05 78.3 °F 76.6 °F 30.05 in Calm   2.0 mph 95 % 0.00 in
07:10 78.6 °F 77.0 °F 30.05 in Calm   2.0 mph 95 % 0.00 in
07:15 79.2 °F 77.5 °F 30.05 in Calm   1.0 mph 95 % 0.00 in
07:20 79.9 °F 78.1 °F 30.06 in Calm   1.0 mph 94 % 0.00 in
07:25 80.4 °F 78.3 °F 30.06 in Calm   1.0 mph 93 % 0.00 in
07:30 81.0 °F 78.4 °F 30.06 in Calm   1.0 mph 92 % 0.00 in
07:35 81.7 °F 79.2 °F 30.06 in Calm   1.0 mph 92 % 0.00 in
07:40 82.6 °F 79.7 °F 30.07 in Calm   1.0 mph 91 % 0.00 in
07:45 82.8 °F 79.2 °F 30.07 in Calm   2.0 mph 89 % 0.00 in
07:50 82.9 °F 78.6 °F 30.07 in Calm   2.0 mph 87 % 0.00 in
07:55 83.5 °F 79.2 °F 30.07 in Calm   3.0 mph 87 % 0.00 in
08:00 83.8 °F 78.8 °F 30.07 in Calm   3.0 mph 85 % 0.00 in
08:05 84.4 °F 79.0 °F 30.07 in Calm   3.0 mph 84 % 0.00 in
08:10 84.9 °F 79.2 °F 30.08 in Calm   3.0 mph 83 % 0.00 in
08:15 85.1 °F 79.0 °F 30.08 in SSE 1.0 mph 4.0 mph 82 % 0.00 in
08:20 85.3 °F 78.8 °F 30.08 in South 2.0 mph 4.0 mph 81 % 0.00 in
08:25 85.5 °F 79.0 °F 30.08 in South 4.0 mph 4.0 mph 81 % 0.00 in
08:30 85.3 °F 78.1 °F 30.08 in SSE 1.0 mph 6.0 mph 79 % 0.00 in
08:35 85.5 °F 78.6 °F 30.09 in East 2.0 mph 6.0 mph 80 % 0.00 in
08:40 85.5 °F 78.6 °F 30.08 in ESE 3.0 mph 6.0 mph 80 % 0.00 in
08:45 85.6 °F 78.4 °F 30.08 in ENE 1.0 mph 5.0 mph 79 % 0.00 in
08:50 86.5 °F 79.7 °F 30.08 in SSE 2.0 mph 5.0 mph 80 % 0.00 in
08:55 87.1 °F 79.3 °F 30.09 in Calm   5.0 mph 78 % 0.00 in
09:00 87.3 °F 78.8 °F 30.09 in SSW 2.0 mph 4.0 mph 76 % 0.00 in
09:05 87.4 °F 79.0 °F 30.09 in SSE 1.0 mph 4.0 mph 76 % 0.00 in
09:06 87.4 °F 79.0 °F 30.09 in SE 2.0 mph 4.0 mph 76 % 0.00 in
09:11 87.6 °F 78.6 °F 30.09 in SSW 4.0 mph 5.0 mph 75 % 0.00 in
09:16 87.4 °F 78.1 °F 30.09 in SW 2.0 mph 5.0 mph 74 % 0.00 in
09:21 87.6 °F 78.3 °F 30.09 in Calm   5.0 mph 74 % 0.00 in
09:26 87.8 °F 78.8 °F 30.09 in NW 1.0 mph 5.0 mph 75 % 0.00 in
09:31 88.2 °F 77.9 °F 30.09 in SSW 2.0 mph 5.0 mph 72 % 0.00 in
09:36 88.5 °F 78.8 °F 30.09 in SSW 1.0 mph 6.0 mph 73 % 0.00 in
09:41 89.1 °F 78.1 °F 30.09 in SSW 2.0 mph 6.0 mph 70 % 0.00 in
09:46 89.2 °F 77.7 °F 30.09 in Calm   6.0 mph 69 % 0.00 in
09:51 89.6 °F 77.5 °F 30.09 in Calm   6.0 mph 68 % 0.00 in
09:56 89.6 °F 77.5 °F 30.09 in ESE 3.0 mph 7.0 mph 68 % 0.00 in
10:01 89.1 °F 77.5 °F 30.09 in Calm   7.0 mph 69 % 0.00 in
10:07 89.4 °F 77.9 °F 30.10 in SE 4.0 mph 7.0 mph 69 % 0.00 in
10:12 88.9 °F 77.4 °F 30.10 in Calm   7.0 mph 69 % 0.00 in
10:17 89.2 °F 78.1 °F 30.10 in SSW 2.0 mph 5.0 mph 70 % 0.00 in
10:22 89.1 °F 76.3 °F 30.10 in SSW 2.0 mph 5.0 mph 66 % 0.00 in
10:27 89.1 °F 77.2 °F 30.10 in SE 1.0 mph 3.0 mph 68 % 0.00 in
10:32 88.5 °F 75.7 °F 30.10 in Calm   3.0 mph 66 % 0.00 in
10:37 88.7 °F 76.8 °F 30.10 in Calm   3.0 mph 68 % 0.00 in
10:42 88.9 °F 77.0 °F 30.10 in SE 1.0 mph 2.0 mph 68 % 0.00 in
10:47 88.7 °F 76.3 °F 30.10 in SSW 1.0 mph 4.0 mph 67 % 0.00 in
10:52 88.3 °F 76.5 °F 30.10 in Calm   4.0 mph 68 % 0.00 in
10:57 88.3 °F 75.6 °F 30.10 in South 1.0 mph 4.0 mph 66 % 0.00 in
11:02 89.1 °F 76.6 °F 30.10 in Calm   4.0 mph 67 % 0.00 in
11:07 90.3 °F 77.0 °F 30.10 in Calm   4.0 mph 65 % 0.00 in
11:12 91.6 °F 77.7 °F 30.10 in SSE 2.0 mph 4.0 mph 64 % 0.00 in
11:17 92.3 °F 76.8 °F 30.10 in Calm   3.0 mph 61 % 0.00 in
11:22 91.9 °F 75.6 °F 30.10 in Calm   3.0 mph 59 % 0.00 in
11:27 91.6 °F 76.3 °F 30.10 in Calm   3.0 mph 61 % 0.00 in
11:32 91.9 °F 76.1 °F 30.10 in NNW 1.0 mph 3.0 mph 60 % 0.00 in
11:37 92.7 °F 76.3 °F 30.10 in South 3.0 mph 3.0 mph 59 % 0.00 in
11:42 92.8 °F 75.4 °F 30.10 in ESE 3.0 mph 4.0 mph 57 % 0.00 in
11:47 93.4 °F 76.8 °F 30.10 in Calm   5.0 mph 59 % 0.00 in
11:52 93.9 °F 76.3 °F 30.10 in ESE 3.0 mph 5.0 mph 57 % 0.00 in
11:57 94.6 °F 77.5 °F 30.10 in Calm   7.0 mph 58 % 0.00 in
12:02 95.5 °F 79.0 °F 30.09 in South 1.0 mph 7.0 mph 59 % 0.00 in
12:07 96.1 °F 77.9 °F 30.09 in SSE 1.0 mph 7.0 mph 56 % 0.00 in
12:12 96.1 °F 77.4 °F 30.09 in NNW 1.0 mph 7.0 mph 55 % 0.00 in
12:17 95.5 °F 76.8 °F 30.09 in Calm   7.0 mph 55 % 0.00 in
12:22 95.0 °F 75.7 °F 30.09 in NW 1.0 mph 7.0 mph 54 % 0.00 in
12:27 94.3 °F 75.6 °F 30.09 in Calm   4.0 mph 55 % 0.00 in
12:32 93.9 °F 75.7 °F 30.09 in NNW 2.0 mph 3.0 mph 56 % 0.00 in
12:37 93.9 °F 75.7 °F 30.09 in ESE 1.0 mph 3.0 mph 56 % 0.00 in
12:42 93.6 °F 75.0 °F 30.09 in NNW 1.0 mph 5.0 mph 55 % 0.00 in
12:47 93.2 °F 75.2 °F 30.08 in NW 2.0 mph 5.0 mph 56 % 0.00 in
12:52 92.7 °F 74.1 °F 30.08 in NNW 1.0 mph 5.0 mph 55 % 0.00 in
12:57 92.5 °F 74.5 °F 30.08 in ENE 3.0 mph 4.0 mph 56 % 0.00 in
13:02 92.1 °F 75.2 °F 30.08 in ESE 1.0 mph 4.0 mph 58 % 0.00 in
13:07 92.5 °F 75.0 °F 30.07 in Calm   4.0 mph 57 % 0.00 in
13:12 92.7 °F 74.7 °F 30.08 in Calm   4.0 mph 56 % 0.00 in
13:17 93.0 °F 74.5 °F 30.08 in East 3.0 mph 4.0 mph 55 % 0.00 in
13:22 93.4 °F 75.9 °F 30.07 in East 2.0 mph 5.0 mph 57 % 0.00 in
13:27 94.3 °F 75.6 °F 30.07 in ESE 6.0 mph 7.0 mph 55 % 0.00 in
13:32 94.3 °F 75.6 °F 30.07 in South 5.0 mph 7.0 mph 55 % 0.00 in
13:37 93.6 °F 75.6 °F 30.07 in East 5.0 mph 8.0 mph 56 % 0.00 in
13:42 94.3 °F 76.6 °F 30.07 in SE 8.0 mph 8.0 mph 57 % 0.00 in
13:47 94.6 °F 77.5 °F 30.06 in ENE 2.0 mph 9.0 mph 58 % 0.00 in
13:52 94.8 °F 76.6 °F 30.06 in SE 4.0 mph 9.0 mph 56 % 0.00 in
13:57 95.2 °F 75.9 °F 30.06 in NNE 3.0 mph 9.0 mph 54 % 0.00 in
14:02 95.2 °F 75.4 °F 30.06 in SE 4.0 mph 8.0 mph 53 % 0.00 in
14:07 95.4 °F 76.1 °F 30.06 in SSE 4.0 mph 8.0 mph 54 % 0.00 in
14:12 94.8 °F 76.1 °F 30.06 in ESE 3.0 mph 8.0 mph 55 % 0.00 in
14:17 94.6 °F 77.0 °F 30.06 in NE 4.0 mph 8.0 mph 57 % 0.00 in
14:22 95.2 °F 76.5 °F 30.05 in NE 1.0 mph 8.0 mph 55 % 0.00 in
14:27 95.5 °F 76.3 °F 30.05 in ESE 1.0 mph 8.0 mph 54 % 0.00 in
14:32 95.7 °F 76.5 °F 30.05 in NW 1.0 mph 8.0 mph 54 % 0.00 in
14:37 95.9 °F 76.6 °F 30.04 in East 5.0 mph 7.0 mph 54 % 0.00 in
14:42 96.1 °F 76.1 °F 30.04 in ESE 3.0 mph 8.0 mph 53 % 0.00 in
14:47 96.4 °F 75.9 °F 30.04 in ENE 4.0 mph 8.0 mph 52 % 0.00 in
14:52 95.9 °F 75.4 °F 30.04 in SSE 9.0 mph 9.0 mph 52 % 0.00 in
14:57 95.7 °F 75.9 °F 30.04 in ESE 5.0 mph 10.0 mph 53 % 0.00 in
15:02 96.1 °F 76.8 °F 30.04 in SE 3.0 mph 10.0 mph 54 % 0.00 in
15:07 96.6 °F 74.8 °F 30.04 in SW 6.0 mph 10.0 mph 50 % 0.00 in
15:12 95.5 °F 74.5 °F 30.04 in SE 6.0 mph 9.0 mph 51 % 0.00 in
15:17 94.8 °F 75.0 °F 30.04 in SSE 4.0 mph 9.0 mph 53 % 0.00 in
15:22 94.8 °F 75.0 °F 30.03 in South 1.0 mph 9.0 mph 53 % 0.00 in
15:27 95.2 °F 74.8 °F 30.03 in South 2.0 mph 8.0 mph 52 % 0.00 in
15:32 94.5 °F 74.1 °F 30.03 in SE 1.0 mph 10.0 mph 52 % 0.00 in
15:37 93.9 °F 74.1 °F 30.02 in SE 6.0 mph 10.0 mph 53 % 0.00 in
15:42 93.7 °F 73.9 °F 30.02 in SSE 6.0 mph 10.0 mph 53 % 0.00 in
15:47 94.1 °F 74.3 °F 30.02 in SE 6.0 mph 8.0 mph 53 % 0.00 in
15:52 94.3 °F 75.0 °F 30.02 in SE 4.0 mph 8.0 mph 54 % 0.00 in
15:57 94.1 °F 73.8 °F 30.01 in SSE 3.0 mph 7.0 mph 52 % 0.00 in
16:02 93.6 °F 73.8 °F 30.01 in SE 6.0 mph 9.0 mph 53 % 0.00 in
16:07 93.7 °F 74.7 °F 30.01 in East 3.0 mph 9.0 mph 54 % 0.00 in
16:12 94.3 °F 74.5 °F 30.01 in SE 7.0 mph 9.0 mph 53 % 0.00 in
16:17 93.7 °F 74.7 °F 30.01 in ESE 4.0 mph 10.0 mph 54 % 0.00 in
16:22 93.6 °F 73.8 °F 30.01 in NE 4.0 mph 10.0 mph 53 % 0.00 in
16:27 93.6 °F 73.8 °F 30.01 in ESE 3.0 mph 10.0 mph 53 % 0.00 in
16:32 93.6 °F 74.5 °F 30.01 in East 4.0 mph 9.0 mph 54 % 0.00 in
16:37 93.4 °F 74.3 °F 30.01 in East 4.0 mph 10.0 mph 54 % 0.00 in
16:42 93.6 °F 76.6 °F 30.01 in SE 12.0 mph 13.0 mph 58 % 0.00 in
16:47 92.8 °F 75.9 °F 30.01 in South 10.0 mph 15.0 mph 58 % 0.00 in
16:52 92.8 °F 76.5 °F 30.01 in SSE 8.0 mph 15.0 mph 59 % 0.00 in
16:57 92.7 °F 76.3 °F 30.02 in SSE 4.0 mph 15.0 mph 59 % 0.00 in
17:02 92.5 °F 76.6 °F 30.01 in SW 8.0 mph 14.0 mph 60 % 0.00 in
17:07 92.5 °F 76.1 °F 30.01 in SE 5.0 mph 12.0 mph 59 % 0.00 in
17:12 92.3 °F 76.5 °F 30.01 in SE 4.0 mph 11.0 mph 60 % 0.00 in
17:17 92.5 °F 76.6 °F 30.01 in ESE 5.0 mph 12.0 mph 60 % 0.00 in
17:22 92.7 °F 75.7 °F 30.01 in SE 11.0 mph 12.0 mph 58 % 0.00 in
17:27 92.7 °F 75.7 °F 30.00 in SSE 10.0 mph 15.0 mph 58 % 0.00 in
17:32 92.7 °F 75.7 °F 30.00 in SE 6.0 mph 15.0 mph 58 % 0.00 in
17:37 92.8 °F 75.9 °F 30.00 in SE 5.0 mph 15.0 mph 58 % 0.00 in
17:42 92.8 °F 75.9 °F 30.00 in SSE 9.0 mph 13.0 mph 58 % 0.00 in
17:47 93.0 °F 76.1 °F 30.00 in SSE 9.0 mph 12.0 mph 58 % 0.00 in
17:52 92.7 °F 75.2 °F 30.01 in East 7.0 mph 15.0 mph 57 % 0.00 in
17:57 91.9 °F 74.5 °F 30.01 in SE 7.0 mph 15.0 mph 57 % 0.00 in
18:02 91.6 °F 74.1 °F 30.01 in SE 3.0 mph 15.0 mph 57 % 0.00 in
18:07 91.2 °F 74.3 °F 30.01 in SSW 4.0 mph 13.0 mph 58 % 0.00 in
18:12 90.9 °F 74.1 °F 30.01 in SSW 4.0 mph 13.0 mph 58 % 0.00 in
18:17 90.9 °F 74.5 °F 30.00 in SSE 3.0 mph 10.0 mph 59 % 0.00 in
18:22 90.7 °F 74.3 °F 30.00 in SE 5.0 mph 8.0 mph 59 % 0.00 in
18:27 90.7 °F 74.8 °F 30.00 in ESE 5.0 mph 10.0 mph 60 % 0.00 in
18:32 90.7 °F 75.4 °F 30.00 in SSE 3.0 mph 10.0 mph 61 % 0.00 in
18:37 90.5 °F 75.2 °F 30.00 in SE 3.0 mph 10.0 mph 61 % 0.00 in
18:42 90.3 °F 75.6 °F 30.00 in SE 4.0 mph 8.0 mph 62 % 0.00 in
18:47 90.3 °F 75.9 °F 30.00 in East 3.0 mph 8.0 mph 63 % 0.00 in
18:52 90.3 °F 75.9 °F 30.01 in South 1.0 mph 7.0 mph 63 % 0.00 in
18:57 90.1 °F 76.3 °F 30.01 in South 3.0 mph 7.0 mph 64 % 0.00 in
19:02 90.0 °F 76.6 °F 30.01 in SSE 5.0 mph 7.0 mph 65 % 0.00 in
19:07 89.8 °F 76.5 °F 30.01 in SSE 2.0 mph 8.0 mph 65 % 0.00 in
19:12 89.8 °F 76.5 °F 30.01 in SSE 4.0 mph 8.0 mph 65 % 0.00 in
19:17 89.6 °F 76.3 °F 30.01 in ESE 4.0 mph 8.0 mph 65 % 0.00 in
19:22 89.6 °F 75.7 °F 30.01 in SSE 2.0 mph 7.0 mph 64 % 0.00 in
19:27 89.4 °F 75.2 °F 30.01 in SE 6.0 mph 8.0 mph 63 % 0.00 in
19:32 89.4 °F 75.2 °F 30.01 in ESE 2.0 mph 8.0 mph 63 % 0.00 in
19:37 89.2 °F 75.0 °F 30.02 in SSE 2.0 mph 8.0 mph 63 % 0.00 in
19:42 89.1 °F 74.8 °F 30.01 in SE 2.0 mph 7.0 mph 63 % 0.00 in
19:47 89.1 °F 75.2 °F 30.01 in ESE 3.0 mph 6.0 mph 64 % 0.00 in
19:52 88.9 °F 75.6 °F 30.02 in SSE 2.0 mph 9.0 mph 65 % 0.00 in
19:57 88.5 °F 75.2 °F 30.02 in ESE 6.0 mph 9.0 mph 65 % 0.00 in
20:02 88.3 °F 75.6 °F 30.02 in South 4.0 mph 9.0 mph 66 % 0.00 in
20:07 88.0 °F 75.6 °F 30.02 in South 2.0 mph 9.0 mph 67 % 0.00 in
20:12 87.4 °F 75.6 °F 30.02 in SSE 1.0 mph 8.0 mph 68 % 0.00 in
20:17 86.9 °F 75.6 °F 30.02 in SSE 2.0 mph 6.0 mph 69 % 0.00 in
20:22 86.7 °F 75.7 °F 30.02 in SE 2.0 mph 5.0 mph 70 % 0.00 in
20:27 86.5 °F 75.9 °F 30.03 in Calm   4.0 mph 71 % 0.00 in
20:32 86.5 °F 75.9 °F 30.03 in Calm   4.0 mph 71 % 0.00 in
20:37 86.5 °F 75.9 °F 30.02 in SSW 3.0 mph 4.0 mph 71 % 0.00 in
20:42 86.5 °F 76.5 °F 30.03 in ESE 3.0 mph 7.0 mph 72 % 0.00 in
20:47 86.5 °F 76.5 °F 30.03 in ESE 5.0 mph 7.0 mph 72 % 0.00 in
20:52 86.5 °F 76.5 °F 30.03 in ESE 3.0 mph 7.0 mph 72 % 0.00 in
20:57 86.5 °F 76.5 °F 30.04 in SE 2.0 mph 7.0 mph 72 % 0.00 in
21:02 86.4 °F 76.3 °F 30.03 in SSW 2.0 mph 7.0 mph 72 % 0.00 in
21:07 86.2 °F 76.5 °F 30.03 in SSE 3.0 mph 4.0 mph 73 % 0.00 in
21:12 86.2 °F 76.5 °F 30.03 in SSW 4.0 mph 5.0 mph 73 % 0.00 in
21:17 85.8 °F 76.1 °F 30.03 in SE 2.0 mph 6.0 mph 73 % 0.00 in
21:22 85.8 °F 76.1 °F 30.04 in SSE 2.0 mph 6.0 mph 73 % 0.00 in
21:27 85.6 °F 75.9 °F 30.03 in South 3.0 mph 6.0 mph 73 % 0.00 in
21:32 85.6 °F 76.5 °F 30.04 in SE 1.0 mph 7.0 mph 74 % 0.00 in
21:38 85.6 °F 75.9 °F 30.04 in South 3.0 mph 7.0 mph 73 % 0.00 in
21:43 85.5 °F 76.3 °F 30.04 in SSE 5.0 mph 7.0 mph 74 % 0.00 in
21:48 85.3 °F 76.1 °F 30.04 in SE 4.0 mph 7.0 mph 74 % 0.00 in
21:53 85.3 °F 76.5 °F 30.04 in ESE 2.0 mph 6.0 mph 75 % 0.00 in
21:58 84.9 °F 76.1 °F 30.04 in SSW 4.0 mph 6.0 mph 75 % 0.00 in
22:03 84.9 °F 76.1 °F 30.04 in South 6.0 mph 7.0 mph 75 % 0.00 in
22:08 84.7 °F 76.3 °F 30.04 in South 3.0 mph 7.0 mph 76 % 0.00 in
22:13 84.7 °F 76.3 °F 30.04 in SE 3.0 mph 8.0 mph 76 % 0.00 in
22:18 84.6 °F 76.1 °F 30.04 in SE 4.0 mph 8.0 mph 76 % 0.00 in
22:23 84.4 °F 76.5 °F 30.04 in SSW 2.0 mph 8.0 mph 77 % 0.00 in
22:28 84.2 °F 76.3 °F 30.05 in SSW 2.0 mph 7.0 mph 77 % 0.00 in
22:33 84.0 °F 76.5 °F 30.05 in SSW 3.0 mph 7.0 mph 78 % 0.00 in
22:38 83.8 °F 76.3 °F 30.05 in SSE 2.0 mph 7.0 mph 78 % 0.00 in
22:43 83.8 °F 76.6 °F 30.05 in South 3.0 mph 6.0 mph 79 % 0.00 in
22:48 83.7 °F 76.5 °F 30.05 in South 3.0 mph 7.0 mph 79 % 0.00 in
22:53 83.7 °F 76.5 °F 30.05 in SE 3.0 mph 7.0 mph 79 % 0.00 in
22:58 83.7 °F 76.5 °F 30.05 in SE 1.0 mph 7.0 mph 79 % 0.00 in
23:03 83.5 °F 76.3 °F 30.05 in SSE 2.0 mph 7.0 mph 79 % 0.00 in
23:08 83.3 °F 76.5 °F 30.05 in South 2.0 mph 7.0 mph 80 % 0.00 in
23:13 83.1 °F 76.3 °F 30.05 in SSW 2.0 mph 6.0 mph 80 % 0.00 in
23:18 82.9 °F 76.1 °F 30.06 in SE 1.0 mph 6.0 mph 80 % 0.00 in
23:23 82.9 °F 76.5 °F 30.06 in SSE 3.0 mph 5.0 mph 81 % 0.00 in
23:28 82.9 °F 76.5 °F 30.06 in SE 4.0 mph 5.0 mph 81 % 0.00 in
23:33 82.9 °F 76.5 °F 30.06 in SSE 1.0 mph 4.0 mph 81 % 0.00 in
23:38 82.8 °F 76.3 °F 30.06 in Calm   5.0 mph 81 % 0.00 in
23:43 82.6 °F 76.1 °F 30.06 in South 5.0 mph 5.0 mph 81 % 0.00 in
23:48 82.6 °F 76.5 °F 30.06 in SE 5.0 mph 7.0 mph 82 % 0.00 in
23:53 82.6 °F 76.5 °F 30.06 in SW 3.0 mph 7.0 mph 82 % 0.00 in
23:58 82.4 °F 76.3 °F 30.06 in SSE 2.0 mph 7.0 mph 82 % 0.00 in
Spring, Texas: Villages of Bridgestone
Compliments of Weather Underground - 2.75 mb

Script developed by  Jim McMurry - jmcmurry@mwt.net Adapted for the template by  Wim van der Kuil - Leuven-Template.eu

You find our weather info also at:

UK Metoffice

WeatherCloud

Weather Underground

Mid-South Weather Network

AWEKAS

Citizen Weather Observer Program (CWOP)

HAMweather, WeatherForYou, PWS Weather

Equipment we use:

Weather-station
Davis Vantage Vue

Weather-program
Meteohub

Weather-server
Debian 7.9 x86 (Guest)

Provider
DreamHost

Davis Vantage Vue

Meteohub

Debian 7.9 x86 (Guest)

DreamHost